When you browse on this site, cookies collect data to enhance your experience and personalize the content and advertising you see.
Visit our Privacy Policy to learn more. By continuing to use the site, you agree to this use of cookies and data.
  • In Czech Republic
  • List of Countries
  • For 7 days
  • Water Temperature
  • Satellite Maps
  • Weather Map
  • Weather Widgets
  • user-avatar
    Login

    Hourly Weather Kerewan

    Today, 15 December, Saturday

    Time Temperature Precipitation Wind Pressure Humidity
    00:00 +30°C° 0 mm 2 mps 760 mmHg 17%
    01:00 +30°C° 0 mm 2 mps 760 mmHg 17%
    02:00 +30°C° 0 mm 2 mps 760 mmHg 16%
    03:00 +29°C° 0 mm 2 mps 760 mmHg 15%
    04:00 +29°C° 0 mm 3 mps 760 mmHg 15%
    05:00 +28°C° 0 mm 3 mps 760 mmHg 14%
    06:00 +29°C° 0 mm 3 mps 760 mmHg 14%
    07:00 +30°C° 0 mm 4 mps 761 mmHg 13%
    08:00 +30°C° 0 mm 4 mps 761 mmHg 13%
    09:00 +33°C° 0 mm 5 mps 761 mmHg 12%
    10:00 +35°C° 0 mm 5 mps 761 mmHg 11%
    11:00 +38°C° 0 mm 6 mps 761 mmHg 10%
    12:00 +38°C° 0 mm 6 mps 760 mmHg 10%
    13:00 +39°C° 0 mm 6 mps 760 mmHg 10%
    14:00 +39°C° 0 mm 6 mps 759 mmHg 10%
    15:00 +38°C° 0 mm 6 mps 759 mmHg 11%
    16:00 +36°C° 0 mm 6 mps 759 mmHg 11%
    17:00 +36°C° 0 mm 6 mps 759 mmHg 12%
    18:00 +34°C° 0 mm 6 mps 760 mmHg 12%
    19:00 +33°C° 0 mm 6 mps 760 mmHg 13%
    20:00 +30°C° 0 mm 5 mps 761 mmHg 13%
    21:00 +30°C° 0 mm 5 mps 761 mmHg 14%
    22:00 +29°C° 0 mm 5 mps 761 mmHg 15%
    23:00 +29°C° 0 mm 5 mps 761 mmHg 16%

    Tomorrow, 16 December, Sunday

    Time Temperature Precipitation Wind Pressure Humidity
    00:00 +29°C° 0 mm 6 mps 761 mmHg 16%
    01:00 +28°C° 0 mm 6 mps 761 mmHg 17%
    02:00 +28°C° 0 mm 6 mps 761 mmHg 17%
    03:00 +28°C° 0 mm 6 mps 760 mmHg 20%
    04:00 +27°C° 0 mm 6 mps 760 mmHg 23%
    05:00 +27°C° 0 mm 6 mps 760 mmHg 26%
    06:00 +28°C° 0 mm 6 mps 760 mmHg 26%
    07:00 +29°C° 0 mm 7 mps 761 mmHg 26%
    08:00 +29°C° 0 mm 7 mps 761 mmHg 26%
    09:00 +32°C° 0 mm 7 mps 761 mmHg 24%
    10:00 +34°C° 0 mm 7 mps 761 mmHg 21%
    11:00 +36°C° 0 mm 7 mps 761 mmHg 19%
    12:00 +38°C° 0 mm 6 mps 760 mmHg 18%
    13:00 +39°C° 0 mm 6 mps 759 mmHg 17%
    14:00 +40°C° 0 mm 6 mps 759 mmHg 15%
    15:00 +39°C° 0 mm 5 mps 758 mmHg 16%
    16:00 +37°C° 0 mm 4 mps 758 mmHg 17%
    17:00 +37°C° 0 mm 3 mps 758 mmHg 17%
    18:00 +35°C° 0 mm 3 mps 759 mmHg 19%
    19:00 +33°C° 0 mm 3 mps 759 mmHg 21%
    20:00 +30°C° 0 mm 3 mps 760 mmHg 23%
    21:00 +29°C° 0 mm 3 mps 760 mmHg 24%
    22:00 +29°C° 0 mm 3 mps 760 mmHg 24%
    23:00 +28°C° 0 mm 3 mps 760 mmHg 24%

    Day after tomorrow, 17 December, Monday

    Time Temperature Precipitation Wind Pressure Humidity
    00:00 +27°C° 0 mm 3 mps 760 mmHg 24%
    01:00 +27°C° 0 mm 3 mps 759 mmHg 24%
    02:00 +26°C° 0 mm 3 mps 759 mmHg 24%
    03:00 +26°C° 0 mm 3 mps 759 mmHg 24%
    04:00 +25°C° 0 mm 3 mps 759 mmHg 23%
    05:00 +25°C° 0 mm 3 mps 759 mmHg 22%
    06:00 +26°C° 0 mm 4 mps 759 mmHg 20%
    07:00 +27°C° 0 mm 4 mps 759 mmHg 17%
    08:00 +28°C° 0 mm 4 mps 760 mmHg 14%
    09:00 +30°C° 0 mm 5 mps 759 mmHg 12%
    10:00 +34°C° 0 mm 5 mps 759 mmHg 9%
    11:00 +36°C° 0 mm 5 mps 759 mmHg 7%
    12:00 +37°C° 0 mm 4 mps 758 mmHg 7%
    13:00 +38°C° 0 mm 4 mps 757 mmHg 7%
    14:00 +39°C° 0 mm 3 mps 757 mmHg 7%
    15:00 +38°C° 0 mm 3 mps 757 mmHg 9%
    16:00 +37°C° 0 mm 3 mps 756 mmHg 10%
    17:00 +37°C° 0 mm 2 mps 756 mmHg 12%
    18:00 +35°C° 0 mm 2 mps 757 mmHg 15%
    19:00 +33°C° 0 mm 3 mps 758 mmHg 19%
    20:00 +30°C° 0 mm 3 mps 758 mmHg 22%
    21:00 +29°C° 0 mm 3 mps 759 mmHg 22%
    22:00 +28°C° 0 mm 3 mps 759 mmHg 22%
    23:00 +27°C° 0 mm 3 mps 759 mmHg 21%

    18 December, Tuesday

    Time Temperature Precipitation Wind Pressure Humidity
    00:00 +27°C° 0 mm 3 mps 759 mmHg 20%
    01:00 +26°C° 0 mm 3 mps 758 mmHg 19%
    02:00 +25°C° 0 mm 3 mps 758 mmHg 18%
    03:00 +25°C° 0 mm 3 mps 758 mmHg 17%
    04:00 +24°C° 0 mm 2 mps 758 mmHg 16%
    05:00 +24°C° 0 mm 2 mps 758 mmHg 15%
    06:00 +25°C° 0 mm 3 mps 759 mmHg 14%
    07:00 +26°C° 0 mm 3 mps 759 mmHg 13%
    08:00 +27°C° 0 mm 3 mps 760 mmHg 12%
    09:00 +30°C° 0 mm 4 mps 760 mmHg 11%
    10:00 +34°C° 0 mm 4 mps 759 mmHg 10%
    11:00 +36°C° 0 mm 4 mps 759 mmHg 8%
    12:00 +37°C° 0 mm 4 mps 758 mmHg 8%
    13:00 +38°C° 0 mm 3 mps 757 mmHg 8%
    14:00 +39°C° 0 mm 3 mps 757 mmHg 7%
    15:00 +38°C° 0 mm 3 mps 757 mmHg 9%
    16:00 +37°C° 0 mm 2 mps 757 mmHg 10%
    17:00 +36°C° 0 mm 2 mps 756 mmHg 11%
    18:00 +34°C° 0 mm 2 mps 757 mmHg 14%
    19:00 +31°C° 0 mm 2 mps 758 mmHg 18%
    20:00 +29°C° 0 mm 2 mps 758 mmHg 21%
    21:00 +29°C° 0 mm 3 mps 758 mmHg 21%
    22:00 +28°C° 0 mm 3 mps 759 mmHg 22%
    23:00 +27°C° 0 mm 3 mps 759 mmHg 22%

    19 December, Wednesday

    Time Temperature Precipitation Wind Pressure Humidity
    00:00 +26°C° 0 mm 3 mps 758 mmHg 22%
    01:00 +26°C° 0 mm 2 mps 758 mmHg 21%
    02:00 +25°C° 0 mm 2 mps 758 mmHg 20%
    03:00 +25°C° 0 mm 2 mps 758 mmHg 19%
    04:00 +24°C° 0 mm 2 mps 758 mmHg 18%
    05:00 +24°C° 0 mm 2 mps 758 mmHg 17%
    06:00 +25°C° 0 mm 3 mps 758 mmHg 16%
    07:00 +26°C° 0 mm 3 mps 759 mmHg 16%
    08:00 +27°C° 0 mm 4 mps 759 mmHg 15%
    09:00 +29°C° 0 mm 4 mps 759 mmHg 13%
    10:00 +33°C° 0 mm 4 mps 759 mmHg 11%
    11:00 +36°C° 0 mm 4 mps 759 mmHg 10%
    12:00 +37°C° 0 mm 4 mps 758 mmHg 9%
    13:00 +38°C° 0 mm 3 mps 757 mmHg 9%
    14:00 +39°C° 0 mm 3 mps 756 mmHg 8%
    15:00 +38°C° 0 mm 3 mps 756 mmHg 9%
    16:00 +37°C° 0 mm 2 mps 756 mmHg 10%
    17:00 +36°C° 0 mm 2 mps 756 mmHg 11%
    18:00 +34°C° 0 mm 2 mps 757 mmHg 14%
    19:00 +32°C° 0 mm 2 mps 757 mmHg 17%
    20:00 +30°C° 0 mm 3 mps 758 mmHg 20%
    21:00 +29°C° 0 mm 3 mps 758 mmHg 21%
    22:00 +28°C° 0 mm 3 mps 758 mmHg 21%
    23:00 +27°C° 0 mm 3 mps 758 mmHg 22%

    20 December, Thursday

    Time Temperature Precipitation Wind Pressure Humidity
    00:00 +26°C° 0 mm 3 mps 758 mmHg 21%
    01:00 +26°C° 0 mm 3 mps 757 mmHg 21%
    02:00 +25°C° 0 mm 3 mps 757 mmHg 20%
    03:00 +25°C° 0 mm 3 mps 757 mmHg 19%
    04:00 +24°C° 0 mm 3 mps 757 mmHg 18%
    05:00 +24°C° 0 mm 3 mps 757 mmHg 16%
    06:00 +25°C° 0 mm 3 mps 758 mmHg 15%
    07:00 +26°C° 0 mm 3 mps 758 mmHg 14%
    08:00 +27°C° 0 mm 3 mps 759 mmHg 13%
    09:00 +30°C° 0 mm 3 mps 759 mmHg 12%
    10:00 +34°C° 0 mm 3 mps 758 mmHg 10%
    11:00 +37°C° 0 mm 4 mps 758 mmHg 9%
    12:00 +38°C° 0 mm 3 mps 758 mmHg 9%
    13:00 +39°C° 0 mm 3 mps 757 mmHg 8%
    14:00 +40°C° 0 mm 3 mps 756 mmHg 8%
    15:00 +39°C° 0 mm 2 mps 756 mmHg 9%
    16:00 +38°C° 0 mm 2 mps 756 mmHg 10%
    17:00 +37°C° 0 mm 2 mps 756 mmHg 11%
    18:00 +35°C° 0 mm 2 mps 756 mmHg 14%
    19:00 +33°C° 0 mm 3 mps 757 mmHg 17%
    20:00 +30°C° 0 mm 3 mps 758 mmHg 20%
    21:00 +29°C° 0 mm 3 mps 758 mmHg 20%
    22:00 +28°C° 0 mm 3 mps 758 mmHg 21%
    23:00 +28°C° 0 mm 3 mps 758 mmHg 22%
    Show more